カタログに戻る

SCOUT G-1 DEB

運用中PO
NORAD 19078·DEBRIS·🇺🇸 United States

打ち上げ Apr 26, 1988 から Vandenberg Space Force Base

Loading…

次のパス (今後24時間)

TLE

最新Source: Space-Track

元期: Sep 14, 2026, 06:30 UTC

1 19078U 88033E   26257.27085456  .00000090  00000-0  13772-3 0  9998
2 19078  90.5564   2.0375 0161272  23.0799   5.4152 13.40912751875697

AllMySatでSCOUT G-1 DEBをリアルタイム追跡

Download on the App Store